C/2013 G9 ( Tenagra )

Japanese version
Home page
Updated on March 26, 2016

---------------------------------------------------------------------

* Profile

Discovery Date April 15, 2013
Magnitude 19.6 mag
Discoverer M. Schwartz and P. R. Holvorcem (Tenagra II, near Nogales, AZ, U.S.A.)

* Pictures

* Orbital Elements

Epoch 2015 Jan. 18.0 TT = JDT 2457040.5
T 2015 Jan. 14.75789 TT                                 MPCW
q   5.3375090            (2000.0)            P               Q
z  -0.0001695      Peri.  204.94511     -0.94096377     -0.09715097
 +/-0.0000008      Node    35.68759     -0.13078849     +0.98788323
e   1.0009049      Incl.  146.23035     -0.31222036     -0.12103059
From 385 observations 2013 Apr. 15-2015 Oct. 20, mean residual 0".5.

* Finding Charts

* Magnitudes Graph

        m1 = -1.8 + 5 log d + 20.0 log r(t + 80)

---------------------------------------------------------------------

The orbital elements are published on M.P.E.C. 2015-U54.
The charts are made with StellaNavigator Ver.8 (AstroArts).
The magnitudes graphs are made with Comet for Windows.

---------------------------------------------------------------------

Copyright(C) Seiichi Yoshida (comet@aerith.net). All rights reserved.